Regional Weather Roundup
Issued by NWS Austin/San Antonio, TX

Current Version | Previous Version | Text Only | Print | Product List | Glossary On
Versions: 1 2 3 4 5 6 7 8 9 10 11 12 13 14 15 16 17 18 19 20 21 22 23 24 25 26 27 28 29 30 31 32 33 34 35 36 37 38 39 40 41 42 43 44 45 46 47 48 49 50
000
ASUS44 KEWX 300813
RWREWX
SOUTH TEXAS REGIONAL WEATHER ROUNDUP
NATIONAL WEATHER SERVICE AUSTIN/SAN ANTONIO TX
300 AM CDT FRI SEP 30 2022

NOTE: "FAIR" INDICATED FEW OR NO CLOUDS BELOW 12,000 FEET WITH NO
SIGNIFICANT WEATHER AND/OR OBSTRUCTIONS TO VISIBILITY.

* - THESE STATIONS ARE NOT NWS OR FAA STATIONS...AND ARE NOT SUBJECT
    TO NWS AND FAA QUALITY CONTROL.

TXZ171-172-183>190-300900-
TEXAS HILL COUNTRY AND EDWARDS PLATEAU

CITY           SKY/WX    TMP DP  RH WIND       PRES   REMARKS
JUNCTION       NOT AVBL
*LLANO         MOCLDY    63  48  59 E5        30.08S
BURNET         CLEAR     69  49  48 E6        30.11S
*HORSESHOE BAY CLEAR     67  48  49 SE3       30.08S
*LAGO VISTA      N/A     67  48  50 E7        30.10S
*KERRVILLE     CLEAR     59  49  68 CALM      30.09S
*FREDERICKSBRG CLEAR     60  48  64 CALM      30.10S
*ROCKSPRINGS   MOCLDY    66  48  52 W5        30.16F
*BOERNE        CLEAR     59  46  63 CALM      30.08S
*CASTROVILLE   CLEAR     66  48  52 NW3       30.06F
HONDO          CLEAR     62  46  55 N6        30.05F
*UVALDE        CLEAR     63  49  60 CALM      30.08S
DEL RIO        CLEAR     66  54  65 E3        30.06S
*LAUGHLIN AFB  CLEAR     62  56  80 NE8       30.04F
*SPOFFORD      CLEAR     60  48  64 W3        30.05F
CARRIZO SPRGS  CLEAR     66  50  55 W5        30.03F
*FAITH RANCH   CLEAR     68  52  56 MISG      30.06F
$$

TXZ173-191>194-202-209-217>225-228-300900-
CENTRAL AND SOUTH CENTRAL TEXAS

CITY           SKY/WX    TMP DP  RH WIND       PRES   REMARKS
GEORGETOWN     CLEAR     67  48  50 E7        30.11S
*TAYLOR        CLEAR     68  47  46 E9        30.10R
AUSTIN/BERGSTM CLEAR     60  52  74 CALM      30.07S
AUSTIN/MABRY   CLEAR     70  50  49 VRB5      30.09S
*PFLUGERVILLE  MOCLDY    64  48  55 E3        30.08S
SAN MARCOS     CLEAR    N/A N/A N/A CALM        N/A
NEW BRAUNFELS  CLEAR     64  50  60 NE6       30.05R
*RANDOLPH AFB  CLEAR     64  53  67 CALM      30.03S
*SEGUIN        CLEAR     65  53  65 E5        30.04S
SAN ANTONIO    CLEAR     68  52  56 CALM      30.05F
STINSON FIELD  CLEAR     65  52  62 CALM      30.03S
*KELLY FIELD   CLEAR     64  51  61 CALM      30.02S
*PLEASANTON    CLEAR     63  54  72 CALM      30.05S
*KENEDY        CLEAR     65  59  79 E5        30.06S
*LA GRANGE     NOT AVBL
*GIDDINGS      CLEAR     62  49  63 E5        30.11S
*GONZALES      CLEAR     67  56  67 E3        30.06S
$$

TXZ163>164-176>182-195>201-210>213-226-227-235-300900-
SOUTHEAST TEXAS

CITY           SKY/WX    TMP DP  RH WIND       PRES   REMARKS
COLLEGE STN    CLEAR     65  46  50 E8        30.09F
*BRYAN         CLEAR     62  44  52 CALM      30.13R
*CALDWELL      CLEAR     65  46  50 E5        30.11R
*CROCKETT      CLEAR     55  45  67 CALM      30.11S
*BRENHAM       CLEAR     65  46  50 E5        30.10
HUNTSVILLE     CLEAR     59  47  64 CALM      30.10S
CONROE         CLEAR     55  47  74 CALM      30.10S
HOUSTON BUSH   CLEAR     62  45  53 N6        30.09S
HOUSTON HOBBY  CLEAR     68  44  42 E12       30.07F
*HOUSTON SW AP NOT AVBL
PEARLAND       CLEAR     67  47  48 E6        30.08F
HOUSTON HOOKS  CLEAR     61  46  57 E3        30.09
ELLINGTON FLD  CLEAR     63  48  59 NE8       30.06F
SUGAR LAND     CLEAR     67  46  47 E8        30.08S
*HOUSTON EXEC  CLEAR     63  46  55 E7        30.09F
*CLEVELAND MUN NOT AVBL
*WHARTON       CLEAR     65  48  53 E7        30.08F
*COLUMBUS      FAIR      62  51  68 CALM      30.10S
*EAGLE LAKE    CLEAR     62  51  69 MISG      30.08S
$$

TXZ214>216-236>238-300900-
THE UPPER TEXAS COAST

CITY           SKY/WX    TMP DP  RH WIND       PRES   REMARKS
*ORANGE        CLEAR     58  49  72 CALM      30.09S
PORT ARTHUR    CLEAR     57  46  66 N6        30.06S
GALVESTON      CLEAR     68  53  58 N12       30.06F
ANGLETON       CLEAR     64  50  60 NE7       30.06S
*BAY CITY      CLEAR     63  53  69 NE7       30.06F
PALACIOS       CLEAR     63  56  78 NE7       30.04F
$$

TXZ229>234-239>247-300900-
TEXAS COASTAL BEND AND RIO GRANDE PLAINS

CITY           SKY/WX    TMP DP  RH WIND       PRES   REMARKS
VICTORIA       CLEAR     61  59  93 NE6       30.05S
*BEEVILLE      CLEAR     62  58  86 CALM      30.03S
ROCKPORT       CLEAR     66  63  90 CALM      30.03S
*PORT ARANSAS  CLEAR    N/A N/A N/A CALM      30.05R
*PORT LAVACA   CLEAR     67  60  76 N5        30.05F
*INGLESIDE     CLEAR     70  65  83 CALM      30.02S
CORPUS CHRISTI PTCLDY    67  60  78 W3        30.03S
CORPUS NAS     CLEAR     72  66  81 W5        30.03R
*ROBSTOWN      CLEAR     65  60  82 MISG      30.04S
ALICE          CLEAR     63  59  87 W3        30.03S
KINGSVILLE NAS CLEAR     66  61  84 W3        30.03S
COTULLA        CLEAR     68  52  56 NW5       30.03F
LAREDO         CLEAR     70  55  59 S6        30.04F
$$

TXZ248>255-300900-
DEEP SOUTH TEXAS

CITY           SKY/WX    TMP DP  RH WIND       PRES   REMARKS
BROWNSVILLE    CLEAR     67  63  87 CALM      30.02F
PORT ISABEL    CLEAR     67  64  90 SW5       30.02F
HARLINGEN      CLEAR     66  63  90 CALM      30.02F
*HEBBRONVILLE  CLEAR     65  56  74 W7        30.05F
MCALLEN        CLEAR     67  61  81 CALM      30.04F
*WESLACO       CLEAR     68  61  77 SW5       30.04S
FALFURRIAS     CLEAR     64  60  86 SW3       30.02F
EDINBURG       CLEAR     64  61  90 CALM      30.04F
*ZAPATA        NOT AVBL
$$

TXZ213>215-236>238-242>244-246-247-251-254-255-300900-
CMAN STATIONS

STATION/POSITION TIME  TEMP    WIND        PRES    WAVE
                       AIR SEA DIR/SP/G            HT/PER
                 (UTC) (F)     (DEG/KT/KT) (MB)    (FT/S)
SEA RIM ST PARK  0800   63     360/  3/  4 1018.1
NORTH JETTY/GLS  0730   71 77   60/ 20/ 23 1016.4
EAGLE POINT      0730   69 76   60/ 16/ 18 1017.6
MORGANS POINT    0730   66 81   50/ 12/ 15 1017.8
MISSION/ARANSAS  0700   78        CALM     1017.0
PORT O`CONNOR    0730   78 89   10/  7/  9 1016.7
PORT ARANSAS     0800   80     110/  3/  4   N/A
BAFFIN BAY       0730   75 81  200/  6/  6 1017.0
PORT ISABEL      0730   70 82  250/  4/  5 1016.1
$$



USA.gov is the U.S. government's official web portal to all federal, state and local government web resources and services.